Flag for Canada Weather past 2 weeks in Edmonton, Alberta, Canada

Now
30 °F

Clear.


Feels Like: 30 °F
Forecast: 27 / 45 °F
Wind: No wind

Location: Edmonton Municipal

Current Time: Oct 25, 2014 at 6:01:29 AM

Latest Report: Oct 25, 2014 at 5:00 AM


Visibility: 9 mi

Pressure: 30.08 "Hg

Humidity: 64%

Dew point: 19 °F

Location of EdmontonLocation

Historic Weather in Edmonton — Graph

°F

Edmonton temperature yesterday

Maximum temperature yesterday: 54 °F (at 3:00 PM)
Minimum temperature yesterday: 39 °F (at 6:00 AM)
Average temperature yesterday: 45 °F

Past Weeks' High & Low Weather Summary

 TemperatureHumidityPressure
High72 °F (Oct 10, 4:00 PM)100% (Oct 16, 6:00 AM)30.08 "Hg (Oct 16, 6:00 AM)
Low32 °F (Oct 13, 8:00 AM)27% (Oct 20, 3:00 PM)29.44 "Hg (Oct 23, 12:00 PM)
Average50 °F59%29.73 "Hg
* Reported Oct 10 4:00 AM — Oct 25 4:00 AM, Edmonton, Weather by CustomWeather, © 2014

Note: Actual official high and low records may vary slightly from our data, if they occured in-between our weather recording intervals... More about our weather records

Advertising

Edmonton weather history for previous 24 hours

 ConditionsComfort  
Time TempWeatherWind HumidityBarometerVisibility
4:00 AM
Oct 25
32 °FClear.3 mph64%30.08 "Hg9 mi
3:00 AM34 °FClear.6 mph56%30.08 "Hg9 mi
2:00 AM36 °FClear.7 mph56%30.07 "Hg9 mi
1:00 AM37 °FClear.5 mph52%30.05 "Hg9 mi
12:00 AM37 °FClear.7 mph48%30.05 "Hg9 mi
11:00 PM
Oct 24
39 °FClear.7 mph45%30.02 "Hg9 mi
10:00 PM41 °FClear.7 mph45%30.01 "Hg9 mi
9:00 PM43 °FPassing clouds.7 mph42%30.00 "Hg9 mi
8:00 PM46 °FPassing clouds.6 mph37%29.98 "Hg9 mi
7:00 PM46 °FPartly sunny.6 mph37%29.96 "Hg9 mi
6:00 PM50 °FScattered clouds.8 mph32%29.95 "Hg9 mi
5:00 PM50 °FPartly sunny.14 mph32%29.93 "Hg9 mi
4:00 PM52 °FPassing clouds.15 mph32%29.90 "Hg9 mi
3:00 PM54 °FSunny.17 mph30%29.90 "Hg9 mi
2:00 PM52 °FSunny.17 mph35%29.90 "Hg9 mi
1:00 PM52 °FSunny.13 mph38%29.90 "Hg9 mi
12:00 PM48 °FSunny.12 mph50%29.89 "Hg9 mi
11:00 AM45 °FSunny.15 mph57%29.88 "Hg9 mi
10:00 AM43 °FSunny.10 mph61%29.87 "Hg9 mi
9:00 AM39 °FPassing clouds.12 mph75%29.85 "Hg9 mi
8:00 AM39 °FClear.8 mph75%29.83 "Hg9 mi
7:00 AM39 °FClear.8 mph75%29.80 "Hg9 mi
6:00 AM39 °FClear.8 mph75%29.78 "Hg9 mi
Weather by CustomWeather, © 2014

See weather overviewHow to use our weather pages